Date,TemperatureHighF,TemperatureAvgF,TemperatureLowF,DewpointHighF,DewpointAvgF,DewpointLowF,HumidityHigh,HumidityAvg,HumidityLow,PressureMaxIn,PressureMinIn,WindSpeedMaxMPH,WindSpeedAvgMPH,GustSpeedMaxMPH,PrecipitationSumIn
2013-12-1,50,39,32,21,15,5,53,37,27,29.94,29.53,5,1,6,0.00
2013-12-2,47,35,31,26,20,14,70,55,27,29.56,29.47,4,0,5,0.00
2013-12-3,54,37,28,26,19,14,76,52,23,29.56,29.44,7,1,11,0.00
2013-12-4,55,39,29,24,19,13,72,45,23,29.74,29.56,7,1,8,0.00
2013-12-5,57,51,41,55,46,22,95,85,50,29.74,29.56,6,1,8,0.04
2013-12-6,56,46,36,54,36,18,96,70,38,29.74,29.47,11,3,13,0.39
2013-12-7,41,35,29,28,14,4,73,44,28,30.03,29.65,13,3,15,0.20
2013-12-8,32,28,22,16,4,2,60,36,28,30.09,29.91,10,2,10,0.00
2013-12-9,37,33,28,32,26,14,83,77,61,29.91,29.53,8,1,12,0.08
2013-12-10,36,31,22,30,20,7,81,64,42,29.62,29.41,0,0,0,0.00
2013-12-11,35,27,20,8,3,0,52,36,25,29.85,29.59,0,0,0,0.00
2013-12-12,30,22,14,0,-5,-9,44,30,23,29.88,29.65,0,0,0,0.00
2013-12-13,36,26,18,2,-4,-9,36,27,22,29.88,29.59,14,4,19,0.00
2013-12-14,24,19,15,9,1,-6,61,46,27,30.03,29.44,11,5,15,0.00
2013-12-15,39,31,21,26,16,5,79,56,32,29.53,29.00,14,4,19,0.00
2013-12-16,32,24,12,10,-3,-10,54,31,23,29.77,29.29,17,4,19,0.00
2013-12-17,21,16,7,9,-1,-14,58,46,36,29.74,29.47,9,2,13,0.00
2013-12-18,38,28,20,7,4,2,50,37,24,29.68,29.44,10,3,15,0.00
2013-12-19,48,34,23,17,8,3,51,34,19,29.71,29.59,11,3,15,0.16
2013-12-20,50,39,31,20,16,12,56,40,24,29.68,29.53,8,1,11,0.63
2013-12-21,59,44,35,46,29,19,88,57,28,29.56,29.47,9,2,11,0.04
2013-12-22,64,57,49,62,49,38,95,78,42,29.56,29.38,14,4,20,0.00
2013-12-23,58,52,38,57,44,15,95,78,39,29.71,29.50,14,3,17,0.67
2013-12-24,39,33,26,15,5,-5,48,30,21,29.74,29.65,13,5,17,0.00
2013-12-25,29,23,18,-1,-7,-12,33,26,23,30.06,29.71,15,4,20,0.00
2013-12-26,36,28,24,11,6,-5,53,38,29,30.00,29.71,8,1,13,0.00
2013-12-27,42,30,21,10,5,1,56,36,21,29.88,29.77,10,2,13,0.00
2013-12-28,52,36,24,13,9,5,53,34,18,29.83,29.59,13,3,17,0.00
2013-12-29,42,37,31,38,24,13,87,60,32,29.62,28.97,11,2,15,0.00
2013-12-30,42,32,19,32,12,-9,82,47,25,29.74,29.12,13,3,17,1.22
2013-12-31,32,24,16,4,-4,-8,36,30,24,29.77,29.62,11,3,17,0.00